Terminal Aerodrome Forecast
Issued by NWS St Louis, MO

Home | Current Version | Previous Version | Graphics & Text | Print | Product List | Glossary On
Versions: 1 2 3 4 5 6 7 8 9 10 11 12 13 14 15 16 17 18 19 20 21 22
000
FTUS43 KLSX 202000 AAA
TAFSTL
TAF AMD
KSTL 202053Z 2021/2124 24010KT P6SM SCT040 BKN250
     FM210300 24007KT P6SM VCTS SCT040CB BKN070
     FM210900 30010KT P6SM SCT040
     FM211500 32014G21KT P6SM FEW040=

USA.gov is the U.S. government's official web portal to all federal, state and local government web resources and services.